Location: ?????
(31.8092°N, 35.2590°E)
Time: 20:10:16
(UTC+00:00)

Cosmos 1455 Rocket - Pass Details

Date: 22 October 2021
Orbit: 604 x 630 km, 82.5° (Epoch: 04 December)

Event Time Altitude Azimuth Distance (km) Brightness Sun altitude
Rises 02:25:33 0° 3° (N) 2,920 6.5 -18.1°
Reaches altitude 10° 02:27:56 10° 12° (NNE) 2,006 5.8 -17.5°
Maximum altitude 02:32:05 38° 80° (E) 961 4.6 -16.7°
Drops below altitude 10° 02:36:10 10° 149° (SSE) 1,982 6.1 -15.8°
Sets 02:38:30 0° 157° (SSE) 2,880 6.9 -15.3°
